Regional Weather Roundup
Issued by NWS Cleveland, OH

Home | Current Version | Previous Version | Graphics & Text | Print | Product List | Glossary On
Versions: 1 2 3 4 5 6 7 8 9 10 11 12 13 14 15 16 17 18 19 20 21 22 23 24 25 26 27 28 29 30 31 32 33 34 35 36 37 38 39 40 41 42 43 44 45 46 47 48 49 50
000
ASUS41 KCLE 250310
RWRCLE
OHIO REGIONAL WEATHER ROUNDUP
NATIONAL WEATHER SERVICE WILMINGTON, OH
1000 PM EST SAT FEB 24 2018

NOTE: "FAIR" INDICATES FEW OR NO CLOUDS BELOW 12,000 FEET WITH NO
SIGNIFICANT WEATHER AND/OR OBSTRUCTIONS TO VISIBILITY.

OHZ001>008-015>018-024>027-034-035-043-044-250400-
   NORTHWEST OHIO

CITY           SKY/WX    TMP DP  RH WIND       PRES   REMARKS
DEFIANCE       LGT RAIN  37  34  89 E12       29.83F FOG
FINDLAY        RAIN      42  38  85 E7        29.84F FOG
TOLEDO EXPRESS RAIN      36  36 100 E12       29.87F FOG
TOLEDO EXEC    LGT RAIN  37  34  89 E10       29.89F FOG
LIMA           RAIN      47  47 100 E10       29.81F FOG
$$

OHZ009>014-019>023-028>033-038-089-250400-
   NORTHEAST OHIO

CITY           SKY/WX    TMP DP  RH WIND       PRES   REMARKS
CLE-HOPKINS    CLOUDY    45  42  89 E8        29.93F
CLE-LAKEFRONT  CLOUDY    37  34  89 NE9       29.92F
CUY CO. ARPT   CLOUDY    45  41  87 E12       29.93F
LORAIN-ELYRIA  CLOUDY    40  34  79 NE13      29.89F
ASHTABULA      FAIR      39  36  89 E3        29.96F
AKRON-CANTON   LGT RAIN  47  43  86 SE10      29.90F FOG
WOOSTER        LGT RAIN  46  44  93 SE15      29.89F FOG
MANSFIELD      LGT RAIN  47  46  97 SE14      29.87F FOG
YOUNGSTOWN     CLOUDY    46  42  86 E9        29.93F
$$

OHZ042-051>053-060>062-070>072-077>081-250400-
  SOUTHWEST OHIO

CITY           SKY/WX    TMP DP  RH WIND       PRES   REMARKS
CINC-COVINGTON RAIN      53  53 100 E12       29.75F FOG
CINC-LUNKEN    LGT RAIN  52  52 100 E7        29.78F
HAMILTON       HVY RAIN  52  51  97 E6        29.78F FOG
DAYTON         RAIN      50  49  96 SE16G23   29.81F FOG
WRIGHT-PAT AFB LGT RAIN  50  48  93 E7        29.77F
DAYTON GENERAL RAIN      52  49  89 E10       29.76F FOG
WILMINGTON     RAIN      50  50 100 E12       29.79F FOG
$$

OHZ036-037-039>041-045>050-054>059-063>069-073>076-082>088-250400-
  CENTRAL AND SOUTHEAST OHIO

CITY           SKY/WX    TMP DP  RH WIND       PRES   REMARKS
COLUMBUS       LGT RAIN  50  49  96 E8        29.85F FOG
OSU AIRPORT    HVY RAIN  49  49 100 SE10      29.86S FOG
BOLTON FIELD   HVY RAIN  48  48 100 E5        29.87S
RICKENBACK AFB RAIN      49  49 100 SE5       29.84F
NEWARK         LGT RAIN  50  48  93 SE5       29.86F
MARION         LGT RAIN  47  45  93 SE9       29.85F
LANCASTER      LGT RAIN  50  49  96 SE8       29.86F FOG
ZANESVILLE     CLOUDY    49  47  93 SE9       29.89F
NEW PHILLY     LGT RAIN  48  46  93 SE8       29.92F
$$




USA.gov is the U.S. government's official web portal to all federal, state and local government web resources and services.